Regional Weather Roundup
Issued by NWS

Home | Current Version | Previous Version | Text Only | Print | Product List | Glossary On
Versions: 1 2 3 4 5 6 7 8 9 10 11 12 13 14 15 16 17 18 19 20 21 22 23 24 25 26 27 28 29 30 31 32 33 34 35 36 37 38 39 40 41 42 43 44 45 46 47 48 49 50
000
ASUS43 KFSD 292010
RWRSD

WEATHER ROUNDUP FOR SOUTH DAKOTA
NATIONAL WEATHER SERVICE SIOUX FALLS SD
300 PM CDT SAT APR 29 2017

NOTE: "FAIR" INDICATES FEW OR NO CLOUDS BELOW 12,000 FEET WITH NO
SIGNIFICANT WEATHER AND/OR OBSTRUCTIONS TO VISIBILITY.


SDZ001>005-009-010-012>017-292100-
NORTHWEST AND NORTH CENTRAL SOUTH DAKOTA

CITY           SKY/WX    TMP DP  RH WIND       PRES   REMARKS
BUFFALO          N/A     56  16  20 VRB5      30.19F
FAITH            N/A     55  16  21 CALM      30.25S
MOBRIDGE       SUNNY     61  14  16 W8        30.24F
$$

SDZ012>016-024>037-041>051-057-063-072>074-292100-
SOUTHWEST AND SOUTH CENTRAL SOUTH DAKOTA

CITY           SKY/WX    TMP DP  RH WIND       PRES   REMARKS
RAPID CTY ARPT MOSUNNY   51  18  27 NE8       30.24F
PIERRE         MOSUNNY   58  15  18 NE12      30.25S
CUSTER         CLOUDY    40  12  32 E6        30.22F
ELLSWORTH AFB  MOSUNNY   52  17  25 NW7       30.24F
PHILIP         SUNNY     58  18  21 NE9       30.24F
PINE RIDGE     MOSUNNY   52  21  29 NE12      30.21F
SPEARFISH      FAIR      52  19  28 VRB7G14   30.25F
WINNER         FAIR      55  18  23 E17       30.24F
$$

SDZ004>011-016>023-039-040-292100-
NORTHEAST SOUTH DAKOTA

CITY           SKY/WX    TMP DP  RH WIND       PRES   REMARKS
ABERDEEN       SUNNY     58  18  21 NE12      30.30R
WATERTOWN      PTSUNNY   51  23  33 E7        30.30R
BROOKINGS      PTSUNNY   52  20  28 NE17      30.27S
SISSETON         N/A     56  22  26 MISG      30.30R
$$

SDZ017-020-022-023-036>040-048>070-292100-
SOUTHEAST SOUTH DAKOTA

CITY           SKY/WX    TMP DP  RH WIND       PRES   REMARKS
SIOUX FALLS    CLOUDY    53  24  32 NE20G30   30.23F
HURON          CLOUDY    57  22  25 NE15G23   30.27S
CHAMBERLAIN    MOSUNNY   57  22  26 NE10G18   30.26S
MITCHELL       MOSUNNY   57  18  21 NE22G29   30.26S
YANKTON        PTSUNNY   52  28  40 NE20G26   30.20F
$$

ABBREVIATIONS USED IN REMARKS
   TC - TEMPERATURE IN CELSIUS
  WCI - WIND CHILL INDEX
   HX - HEAT INDEX
  VSB - VISIBILITY




USA.gov is the U.S. government's official web portal to all federal, state and local government web resources and services.